DW8427 Weather Reports


Display with metric or nautical units.
time (UTC)temp
F
wind
direction
speed
MPH
gust
MPH
rain 1hr
in
rain 24hr
in
rain mn
in
humidity
%
barometer
mb
20260831054626 71 108 0.0 6.0 0.00 0.00 0.00 58 1010.3
20260831053027 71 94 1.0 3.0 0.00 0.00 0.00 56 1010.2
20260831051524 72 122 0.0 4.0 0.00 0.00 0.00 55 1010.3
20260831050039 72 136 2.0 7.0 0.00 0.00 0.00 55 1010.2
20260831044521 74 101 1.0 5.0 0.00 0.00 0.00 52 1010.1
20260831043022 75 142 0.0 5.0 0.00 0.00 0.00 48 1010.0
20260831041521 76 139 0.0 4.0 0.00 0.00 0.00 45 1009.8
20260831040025 77 129 0.0 2.0 0.00 0.00 0.00 45 1009.6
20260831034519 78 184 0.0 2.0 0.00 0.00 0.00 44 1009.5
20260831033020 79 92 0.0 1.0 0.00 0.00 0.00 42 1009.3
20260831031525 80 130 0.0 0.0 0.00 0.00 0.00 40 1009.1
20260831030017 82 131 0.0 3.0 0.00 0.00 0.00 40 1009.1
20260831024520 83 166 1.0 5.0 0.00 0.00 0.00 38 1009.0
20260831023015 85 162 0.0 8.0 0.00 0.00 0.00 37 1008.8
20260831021515 89 110 0.0 0.0 0.00 0.00 0.00 32 1008.8
20260831020014 89 168 0.0 0.0 0.00 0.00 0.00 32 1008.8
20260831014514 90 260 0.0 1.0 0.00 0.00 0.00 32 1008.8
20260831013012 90 246 0.0 1.0 0.00 0.00 0.00 31 1008.8
20260831011516 90 227 0.0 2.0 0.00 0.00 0.00 31 1009.0
20260831010026 91 259 0.0 1.0 0.00 0.00 0.00 31 1009.0
20260831004506 90 179 0.0 2.0 0.00 0.00 0.00 30 1009.0
20260831003005 91 93 0.0 2.0 0.00 0.00 0.00 29 1009.1
20260831001503 90 38 1.0 4.0 0.00 0.00 0.00 30 1009.2
20260831000002 90 278 0.0 1.0 0.00 0.00 0.00 30 1009.3
20260830234611 90 247 0.0 5.0 0.00 0.00 0.00 29 1009.4
20260830233059 90 247 0.0 3.0 0.00 0.00 0.00 29 1009.6
20260830231558 90 235 0.0 3.0 0.00 0.00 0.00 30 1009.7
20260830230100 88 280 0.0 4.0 0.00 0.00 0.00 31 1009.9
20260830224551 89 302 1.0 5.0 0.00 0.00 0.00 31 1010.0
20260830223048 89 273 1.0 4.0 0.00 0.00 0.00 31 1010.3
20260830221545 88 296 0.0 4.0 0.00 0.00 0.00 33 1010.4
20260830220042 87 270 1.0 9.0 0.00 0.00 0.00 34 1010.7
20260830214540 87 314 1.0 4.0 0.00 0.00 0.00 34 1010.9
20260830213036 86 296 0.0 5.0 0.00 0.00 0.00 36 1011.1
20260830211534 86 255 0.0 4.0 0.00 0.00 0.00 37 1011.3
20260830210032 86 270 0.0 4.0 0.00 0.00 0.00 36 1011.4
20260830204528 85 70 0.0 5.0 0.00 0.00 0.00 40 1011.5
20260830203029 85 41 0.0 4.0 0.00 0.00 0.00 43 1011.7
20260830201559 84 37 0.0 3.0 0.00 0.00 0.00 43 1011.8
20260830200022 83 245 0.0 2.0 0.00 0.00 0.00 43 1011.9
20260830194522 82 300 2.0 5.0 0.00 0.00 0.00 44 1012.0
20260830193019 82 250 1.0 5.0 0.00 0.00 0.00 45 1012.1
20260830191520 81 124 0.0 6.0 0.00 0.00 0.00 43 1012.3
20260830190020 81 152 2.0 6.0 0.00 0.00 0.00 43 1012.5
20260830184513 79 235 0.0 3.0 0.00 0.00 0.00 46 1012.6
20260830183010 78 148 0.0 2.0 0.00 0.00 0.00 47 1012.7
20260830181511 76 87 1.0 3.0 0.00 0.00 0.00 49 1012.8
20260830180005 75 151 0.0 5.0 0.00 0.00 0.00 50 1012.9
20260830174505 74 108 0.0 5.0 0.00 0.00 0.00 51 1013.0
20260830173001 74 221 0.0 3.0 0.00 0.00 0.00 53 1013.0
20260830171608 72 129 1.0 5.0 0.00 0.00 0.00 55 1013.0
20260830170056 70 222 0.0 4.0 0.00 0.00 0.00 58 1013.0
20260830164554 69 113 0.0 4.0 0.00 0.00 0.00 60 1013.1
20260830163058 68 108 0.0 5.0 0.00 0.00 0.00 62 1013.1
20260830161550 67 110 0.0 2.0 0.00 0.00 0.00 64 1013.1
20260830160048 65 104 0.0 5.0 0.00 0.00 0.00 66 1013.1
20260830154547 63 115 1.0 4.0 0.00 0.00 0.00 68 1013.2
20260830153047 62 129 0.0 7.0 0.00 0.00 0.00 70 1013.2
20260830151544 62 121 2.0 6.0 0.00 0.00 0.00 70 1013.1
20260830150044 61 139 3.0 7.0 0.00 0.00 0.00 69 1013.1
20260830144544 61 168 0.0 4.0 0.00 0.00 0.00 70 1013.1
20260830143042 60 114 0.0 2.0 0.00 0.00 0.00 71 1012.9
20260830141538 59 98 0.0 0.0 0.00 0.00 0.00 72 1012.8
20260830140038 58 126 0.0 0.0 0.00 0.00 0.00 71 1012.7
20260830134536 58 110 0.0 0.0 0.00 0.00 0.00 72 1012.5
20260830133041 58 113 0.0 0.0 0.00 0.00 0.00 71 1012.3
20260830131531 59 90 0.0 0.0 0.00 0.00 0.00 71 1012.3
20260830130030 59 94 0.0 0.0 0.00 0.00 0.00 70 1012.1
20260830124528 59 108 0.0 1.0 0.00 0.00 0.00 70 1012.0
20260830123027 59 116 0.0 1.0 0.00 0.00 0.00 70 1011.8
20260830121526 60 89 0.0 0.0 0.00 0.00 0.00 70 1011.7
20260830120024 60 89 0.0 0.0 0.00 0.00 0.00 70 1011.8
20260830114524 60 89 0.0 0.0 0.00 0.00 0.00 70 1011.8
20260830113021 59 89 0.0 0.0 0.00 0.00 0.00 71 1011.9
20260830111519 60 89 0.0 0.0 0.00 0.00 0.00 71 1011.9
20260830110016 60 89 0.0 0.0 0.00 0.00 0.00 68 1011.9
20260830104513 62 89 0.0 0.0 0.00 0.00 0.00 66 1011.8
20260830103011 62 92 0.0 0.0 0.00 0.00 0.00 66 1011.7
20260830101510 62 91 0.0 0.0 0.00 0.00 0.00 66 1011.7
20260830100009 62 110 0.0 0.0 0.00 0.00 0.00 66 1011.8
20260830094504 63 113 0.0 0.0 0.00 0.00 0.00 65 1011.7
20260830093003 63 96 0.0 2.0 0.00 0.00 0.00 65 1011.5
20260830091600 64 107 0.0 1.0 0.00 0.00 0.00 64 1011.6
20260830090058 64 92 0.0 1.0 0.00 0.00 0.00 64 1011.7
20260830084604 64 116 0.0 0.0 0.00 0.00 0.00 63 1011.8
20260830083101 64 110 0.0 1.0 0.00 0.00 0.00 63 1011.7
20260830081553 65 109 0.0 4.0 0.00 0.00 0.00 62 1011.7
20260830080054 65 120 1.0 4.0 0.00 0.00 0.00 61 1011.7
20260830074557 66 111 0.0 3.0 0.00 0.00 0.00 59 1011.7
20260830073051 66 122 0.0 1.0 0.00 0.00 0.00 59 1011.6
20260830071543 66 104 0.0 3.0 0.00 0.00 0.00 60 1011.5
20260830070043 66 93 0.0 2.0 0.00 0.00 0.00 61 1011.6
20260830064545 66 111 0.0 0.0 0.00 0.00 0.00 62 1011.7
20260830063045 67 91 0.0 1.0 0.00 0.00 0.00 60 1011.8
20260830061553 67 131 0.0 0.0 0.00 0.00 0.00 59 1011.8
20260830060040 68 140 0.0 3.0 0.00 0.00 0.00 58 1011.8